This demonstration page uses our WeatherBlox Daily Observations layout. Learn more.

Left ArrowRight Arrow

38.20091, -84.87328

Hourly Observations for July 9, 2020

Temp ( °F °C ) Dew Point ( °F °C ) Humidity (%) Winds ( mph kmh ) Pressure ( in mb ) Visibility ( mi km ) Precip ( " mm )
12:53 am 00:53 Clear 75 23.9 70 21.1 84 84 Calm 29.90 1013 10 16 0.00 0.00
1:53 am 01:53 Clear 75 23.9 71 21.7 88 88 Calm 29.90 1013 10 16 0.00 0.00
2:53 am 02:53 Clear 73 22.8 70 21.1 90 90 W 3 6 29.89 1012 7 11 0.00 0.00
3:53 am 03:53 Clear 72 22.2 69 20.6 91 91 Calm 29.88 1012 8 13 0.00 0.00
4:53 am 04:53 Clear 72 22.2 69 20.6 91 91 Calm 29.88 1012 7 11 0.00 0.00
5:53 am 05:53 Clear 71 21.7 68 20 90 90 Calm 29.89 1012 8 13 0.00 0.00
6:53 am 06:53 Sunny 71 21.7 68 20 90 90 Calm 29.91 1013 8 13 0.00 0.00
7:53 am 07:53 Sunny 75 23.9 71 21.7 88 88 Calm 29.93 1014 9 14 0.00 0.00
8:53 am 08:53 Sunny 82 27.8 72 22.2 72 72 Calm 29.93 1013 10 16 0.00 0.00
9:53 am 09:53 Sunny 85 29.4 73 22.8 68 68 VRB 3 6 29.92 1013 10 16 0.00 0.00
10:53 am 10:53 Sunny 89 31.7 72 22.2 57 57 E 5 7 29.92 1013 10 16 0.00 0.00
11:53 am 11:53 Mostly Sunny 89 31.7 71 21.7 55 55 ESE 3 6 29.91 1013 10 16 0.00 0.00
12:53 pm 12:53 Mostly Cloudy with Nearby Thunderstorms 90 32.2 73 22.8 58 58 W 6 9 29.91 1013 10 16 0.00 0.00
1:27 pm 13:27 Cloudy with Thunderstorms 85 29.4 73 22.8 68 68 undefined N/A 29.91 1013 3 4 0.09 2.29
1:33 pm 13:33 Cloudy with Strong Thunderstorms 80 26.7 68 20 67 67 W 9 15 29.91 1013 1 2 0.17 4.32
1:43 pm 13:43 Cloudy with Strong Thunderstorms 80 26.7 66 18.9 62 62 NE 12 19 29.91 1013 1 1 0.34 8.64
1:51 pm 13:51 Cloudy with Thunderstorms 73 23 66 19 78 78 NE 20 31 29.93 1014 2 3 0.38 9.65
1:53 pm 13:53 Cloudy with Thunderstorms 73 22.8 66 18.9 79 79 ENE 20 31 29.93 1014 3 4 0.38 9.65
2:01 pm 14:01 Windy with Storms Likely 72 22.2 66 18.9 82 82 E 21 33 29.93 1014 6 10 0.01 0.25
2:28 pm 14:28 Cloudy with Nearby Thunderstorms 73 22.8 68 20 84 84 E 9 15 29.92 1013 7 11 0.03 0.76
2:53 pm 14:53 Mostly Cloudy with Nearby Thunderstorms 75 23.9 70 21.1 84 84 Calm 29.92 1013 10 16 0.04 1.02
3:16 pm 15:16 Sunny 75 23.9 69 20.6 82 82 N 6 9 29.90 1013 10 16 0.00 0.00
3:53 pm 15:53 Sunny 76 24.4 69 20.6 79 79 Calm 29.89 1012 10 16 0.00 0.00
4:53 pm 16:53 Sunny 81 27.2 71 21.7 72 72 E 3 6 29.85 1011 10 16 0.00 0.00
5:53 pm 17:53 Sunny 86 30 71 21.7 61 61 Calm 29.85 1011 10 16 0.00 0.00
6:53 pm 18:53 Sunny 86 30 71 21.7 61 61 Calm 29.84 1011 10 16 0.00 0.00
7:53 pm 19:53 Sunny 87 30.6 73 22.8 63 63 ENE 6 9 29.85 1011 10 16 0.00 0.00
8:53 pm 20:53 Sunny 82 27.8 73 22.8 74 74 ESE 3 6 29.86 1011 10 16 0.00 0.00
9:53 pm 21:53 Clear 79 26.1 72 22.2 79 79 Calm 29.86 1011 10 16 0.00 0.00
10:53 pm 22:53 Clear 75 23.9 72 22.2 90 90 Calm 29.86 1011 10 16 0.00 0.00
11:53 pm 23:53 Clear 75 23.9 72 22.2 90 90 Calm 29.86 1011 10 16 0.00 0.00

Powered by AerisWeather